• In Kazakhstan
  • List of Countries
  • For 7 days
  • Water Temperature
  • Satellite Maps
  • Weather Map
  • News
  • Weather Widgets
  • user-avatar
    Login

    Hourly Weather Saurimo

    Today, 27 March, Wednesday

    Time Temperature Precipitation Wind Pressure Humidity
    00:00 +21°C° 0 mm 1 mps 671 mmHg 92%
    01:00 +21°C° 0 mm 1 mps 671 mmHg 93%
    02:00 +21°C° 0 mm 1 mps 671 mmHg 93%
    03:00 +21°C° 0 mm 1 mps 671 mmHg 93%
    04:00 +21°C° 0 mm 1 mps 671 mmHg 92%
    05:00 +21°C° 0 mm 1 mps 671 mmHg 92%
    06:00 +21°C° 0 mm 1 mps 672 mmHg 91%
    07:00 +21°C° 0 mm 2 mps 672 mmHg 90%
    08:00 +23°C° 0 mm 2 mps 673 mmHg 85%
    09:00 +24°C° 0 mm 2 mps 673 mmHg 79%
    10:00 +26°C° 0 mm 1 mps 674 mmHg 74%
    11:00 +27°C° 0 mm 1 mps 673 mmHg 69%
    12:00 +28°C° 0 mm 2 mps 673 mmHg 64%
    13:00 +29°C° 0 mm 2 mps 672 mmHg 59%
    14:00 +29°C° 0 mm 2 mps 672 mmHg 62%
    15:00 +28°C° 0 mm 2 mps 671 mmHg 65%
    16:00 +28°C° 0 mm 2 mps 671 mmHg 68%
    17:00 +26°C° 0 mm 1 mps 671 mmHg 73%
    18:00 +25°C° 0 mm 1 mps 671 mmHg 77%
    19:00 +23°C° 0 mm 1 mps 671 mmHg 81%
    20:00 +23°C° 0 mm 1 mps 672 mmHg 82%
    21:00 +23°C° 0 mm 1 mps 672 mmHg 82%
    22:00 +22°C° 0 mm 1 mps 672 mmHg 82%
    23:00 +22°C° 0 mm 1 mps 672 mmHg 85%

    Tomorrow, 28 March, Thursday

    Time Temperature Precipitation Wind Pressure Humidity
    00:00 +22°C° 0 mm 1 mps 672 mmHg 89%
    01:00 +21°C° 0 mm 1 mps 672 mmHg 92%
    02:00 +21°C° 0 mm 1 mps 671 mmHg 93%
    03:00 +21°C° 0 mm 1 mps 671 mmHg 93%
    04:00 +20°C° 0 mm 1 mps 670 mmHg 94%
    05:00 +20°C° 0 mm 2 mps 671 mmHg 92%
    06:00 +20°C° 0 mm 2 mps 671 mmHg 90%
    07:00 +21°C° 0 mm 2 mps 672 mmHg 88%
    08:00 +24°C° 0 mm 2 mps 672 mmHg 81%
    09:00 +26°C° 0 mm 3 mps 673 mmHg 74%
    10:00 +28°C° 0 mm 3 mps 673 mmHg 67%
    11:00 +29°C° 0 mm 2 mps 673 mmHg 61%
    12:00 +31°C° 0 mm 2 mps 672 mmHg 55%
    13:00 +32°C° 0 mm 2 mps 672 mmHg 49%
    14:00 +31°C° 0.7 mm 2 mps 671 mmHg 55%
    15:00 +30°C° 0.7 mm 1 mps 671 mmHg 60%
    16:00 +30°C° 0.7 mm 1 mps 670 mmHg 65%
    17:00 +28°C° 0.6 mm 1 mps 670 mmHg 73%
    18:00 +26°C° 0.6 mm 1 mps 670 mmHg 81%
    19:00 +24°C° 0.6 mm 1 mps 670 mmHg 89%
    20:00 +23°C° 0 mm 1 mps 671 mmHg 90%
    21:00 +23°C° 0 mm 1 mps 671 mmHg 91%
    22:00 +22°C° 0 mm 1 mps 671 mmHg 92%
    23:00 +22°C° 1.6 mm 1 mps 671 mmHg 94%

    Day after tomorrow, 29 March, Friday

    Time Temperature Precipitation Wind Pressure Humidity
    00:00 +21°C° 1.6 mm 1 mps 670 mmHg 95%
    01:00 +21°C° 1.6 mm 1 mps 670 mmHg 97%
    02:00 +21°C° 1.1 mm 1 mps 670 mmHg 97%
    03:00 +21°C° 1.1 mm 1 mps 669 mmHg 96%
    04:00 +21°C° 1.1 mm 1 mps 669 mmHg 96%
    05:00 +21°C° 0.9 mm 1 mps 670 mmHg 96%
    06:00 +21°C° 0.9 mm 1 mps 671 mmHg 95%
    07:00 +22°C° 0.9 mm 1 mps 671 mmHg 94%
    08:00 +23°C° 0.6 mm 1 mps 672 mmHg 89%
    09:00 +25°C° 0.6 mm 2 mps 672 mmHg 83%
    10:00 +27°C° 0.6 mm 2 mps 672 mmHg 77%
    11:00 +28°C° 0.1 mm 2 mps 672 mmHg 69%
    12:00 +30°C° 0.1 mm 1 mps 671 mmHg 61%
    13:00 +32°C° 0.1 mm 1 mps 671 mmHg 53%
    14:00 +30°C° 0.8 mm 1 mps 670 mmHg 59%
    15:00 +29°C° 0.8 mm 1 mps 670 mmHg 66%
    16:00 +28°C° 0.8 mm 1 mps 669 mmHg 72%
    17:00 +26°C° 0.2 mm 1 mps 669 mmHg 78%
    18:00 +25°C° 0.2 mm 1 mps 669 mmHg 83%
    19:00 +23°C° 0.2 mm 1 mps 669 mmHg 89%
    20:00 +23°C° 1.2 mm 1 mps 670 mmHg 89%
    21:00 +20°C° 1.2 mm 0 mps 670 mmHg 90%
    22:00 +20°C° 1.2 mm 0 mps 670 mmHg 91%
    23:00 +20°C° 0.7 mm 0 mps 670 mmHg 91%

    30 March, Saturday

    Time Temperature Precipitation Wind Pressure Humidity
    00:00 +20°C° 0.7 mm 0 mps 670 mmHg 91%
    01:00 +22°C° 0.7 mm 1 mps 669 mmHg 91%
    02:00 +21°C° 0 mm 1 mps 669 mmHg 92%
    03:00 +21°C° 0 mm 1 mps 669 mmHg 93%
    04:00 +20°C° 0 mm 1 mps 668 mmHg 94%
    05:00 +21°C° 0.2 mm 1 mps 669 mmHg 93%
    06:00 +21°C° 0.2 mm 1 mps 670 mmHg 92%
    07:00 +22°C° 0.2 mm 1 mps 671 mmHg 91%
    08:00 +24°C° 0.8 mm 1 mps 671 mmHg 86%
    09:00 +26°C° 0.8 mm 1 mps 671 mmHg 81%
    10:00 +27°C° 0.8 mm 1 mps 672 mmHg 76%
    11:00 +27°C° 2.4 mm 1 mps 671 mmHg 76%
    12:00 +27°C° 2.4 mm 1 mps 670 mmHg 77%
    13:00 +25°C° 2.4 mm 0 mps 669 mmHg 77%
    14:00 +25°C° 1.4 mm 0 mps 669 mmHg 79%
    15:00 +24°C° 1.4 mm 0 mps 669 mmHg 81%
    16:00 +24°C° 1.4 mm 0 mps 669 mmHg 82%
    17:00 +23°C° 0.1 mm 0 mps 669 mmHg 86%
    18:00 +23°C° 0.1 mm 1 mps 670 mmHg 89%
    19:00 +22°C° 0.1 mm 1 mps 670 mmHg 93%
    20:00 +22°C° 0 mm 1 mps 670 mmHg 93%
    21:00 +21°C° 0 mm 1 mps 670 mmHg 93%
    22:00 +21°C° 0 mm 1 mps 670 mmHg 93%
    23:00 +21°C° 0 mm 1 mps 670 mmHg 93%

    31 March, Sunday

    Time Temperature Precipitation Wind Pressure Humidity
    00:00 +21°C° 0 mm 1 mps 670 mmHg 93%
    01:00 +21°C° 0 mm 1 mps 669 mmHg 93%
    02:00 +20°C° 0 mm 1 mps 669 mmHg 93%
    03:00 +20°C° 0 mm 1 mps 669 mmHg 93%
    04:00 +20°C° 0 mm 1 mps 669 mmHg 93%
    05:00 +20°C° 0 mm 1 mps 669 mmHg 92%
    06:00 +21°C° 0 mm 1 mps 670 mmHg 91%
    07:00 +21°C° 0 mm 1 mps 671 mmHg 89%
    08:00 +24°C° 0.1 mm 1 mps 671 mmHg 80%
    09:00 +27°C° 0.1 mm 1 mps 672 mmHg 71%
    10:00 +30°C° 0.1 mm 1 mps 673 mmHg 62%
    11:00 +30°C° 1 mm 1 mps 672 mmHg 59%
    12:00 +30°C° 1 mm 1 mps 671 mmHg 57%
    13:00 +30°C° 1 mm 1 mps 670 mmHg 55%
    14:00 +30°C° 0 mm 1 mps 670 mmHg 55%
    15:00 +30°C° 0 mm 1 mps 670 mmHg 55%
    16:00 +30°C° 0 mm 1 mps 670 mmHg 55%
    17:00 +28°C° 0 mm 1 mps 670 mmHg 61%
    18:00 +26°C° 0 mm 1 mps 670 mmHg 67%
    19:00 +24°C° 0 mm 1 mps 670 mmHg 72%
    20:00 +23°C° 1.7 mm 1 mps 670 mmHg 80%
    21:00 +22°C° 1.7 mm 1 mps 671 mmHg 88%
    22:00 +20°C° 1.7 mm 2 mps 671 mmHg 95%
    23:00 +21°C° 0.2 mm 1 mps 670 mmHg 95%

    1 April, Monday

    Time Temperature Precipitation Wind Pressure Humidity
    00:00 +21°C° 0.2 mm 1 mps 670 mmHg 94%
    01:00 +21°C° 0.2 mm 1 mps 669 mmHg 93%
    02:00 +21°C° 0 mm 1 mps 669 mmHg 93%
    03:00 +21°C° 0 mm 1 mps 669 mmHg 93%
    04:00 +20°C° 0 mm 1 mps 669 mmHg 94%
    05:00 +21°C° 0 mm 1 mps 669 mmHg 93%
    06:00 +20°C° 0 mm 2 mps 670 mmHg 92%
    07:00 +20°C° 0 mm 2 mps 670 mmHg 92%
    08:00 +24°C° 0 mm 2 mps 671 mmHg 83%
    09:00 +26°C° 0 mm 2 mps 671 mmHg 74%
    10:00 +28°C° 0 mm 2 mps 671 mmHg 66%
    11:00 +29°C° 0 mm 2 mps 671 mmHg 59%
    12:00 +30°C° 0 mm 2 mps 671 mmHg 53%
    13:00 +32°C° 0 mm 2 mps 670 mmHg 47%
    14:00 +31°C° 0 mm 1 mps 670 mmHg 50%
    15:00 +31°C° 0 mm 1 mps 670 mmHg 54%
    16:00 +31°C° 0 mm 1 mps 670 mmHg 58%
    17:00 +29°C° 0 mm 1 mps 670 mmHg 60%
    18:00 +27°C° 0 mm 1 mps 670 mmHg 63%
    19:00 +24°C° 0 mm 1 mps 670 mmHg 66%
    20:00 +24°C° 0 mm 1 mps 670 mmHg 67%
    21:00 +23°C° 0 mm 1 mps 670 mmHg 67%
    22:00 +23°C° 0 mm 1 mps 670 mmHg 68%
    23:00 +22°C° 0 mm 1 mps 669 mmHg 68%
    Show more